Tracking 25703 objects as of 2-Jul-2022
HD Live streaming from Space Station
objects crossing your sky now

COSMOS 482 DESCENT CRAFT

Track COSMOS 482 DESCENT CRAFT now!
10-day predictions
COSMOS 482 DESCENT CRAFT is classified as:


NORAD ID: 6073
Int'l Code: 1972-023E
Perigee: 204.5 km
Apogee: 1,912.0 km
Inclination: 52.0 °
Period: 106.2 minutes
Semi major axis: 7429 km
RCS: 0.7153 m2 (medium)
Launch date: March 31, 1972
Source: Commonwealth of Independent States (former USSR) (CIS)
Launch site: TYURATAM MISSILE AND SPACE COMPLEX (TTMTR)
aabbcc
Your satellite tracking list
Your tracking list is empty




NASA's NSSDC Master Catalog

Two Line Element Set (TLE):
1 06073U 72023E   22183.58470620  .00055389  66857-5  18229-3 0  9990
2 06073  52.0260 302.9320 1149149 161.3987 203.2809 13.55772510601238
Source of the keplerian elements: AFSPC